[[{"header":{"parameterUnit":"m.s-1","parameterCategory":1,"la1":30.2991,"la2":30.254,"lo1":-89.0895,"lo2":-89.0444,"dy":0.0017,"dx":0.0017,"nx":28,"ny":28,"refTime":"2024-09-01T21:00:00:Z","depth":0,"parameterNumber":2,"parameterNumberName":"U-component_of_WINDS"},"data":[0,0,0,0,0,0,0,0,0,0,0,0,0,0,0,0,0,0,0,0,0,0,0,0,0,0,0,0,0,0,0,0,0,0,0,0,0,0,0,0,0,0,0,0,0,0,0,0,0,0,0,0,0,0,0,0,0,0,1.0714,1.0714,0,1.0753,1.0754,1.0754,1.0763,1.0763,1.0762,1.0762,1.0802,1.0803,1.0804,0,0,0,0,0,0,0,0,0,0,0,0,0,1.0645,1.0646,1.0714,1.0714,1.0715,1.0753,1.0754,1.0754,1.0763,1.0763,1.0762,1.0762,1.0801,1.0803,1.0805,0,0,0,0,0,0,0,0,0,0,0,0,0,1.0679,1.0647,1.0714,1.0724,1.0725,1.0753,1.0754,1.0754,1.0763,1.0763,1.0762,1.0762,1.0801,1.0803,1.0805,1.0825,0,0,1.0811,1.0812,0,0,0,0,0,0,0,0,1.0677,1.0681,1.0722,1.0723,1.0725,1.0753,1.0744,1.0778,1.0763,1.0749,1.0762,1.0762,1.0786,1.0789,1.0797,1.0827,1.0829,1.0811,1.0812,1.0813,1.0814,0,0,0,0,0,0,0,1.0675,1.068,1.0729,1.0722,1.0724,1.0726,1.073,1.0751,1.0769,1.075,1.075,1.0755,1.0786,1.0795,1.0798,1.083,1.0811,1.0813,1.0814,1.0815,1.0879,1.0879,0,0,0,0,0,0,1.0671,1.0678,1.0728,1.073,1.0699,1.0728,1.0732,1.0744,1.0769,1.0772,1.0755,1.0755,1.0792,1.0796,1.08,1.0826,1.0813,1.0815,1.0816,1.0878,1.0879,1.0879,0,0,0,0,0,0,1.0669,1.0675,1.0726,1.0704,1.0711,1.0729,1.0742,1.0745,1.0754,1.0773,1.0776,1.0761,1.0792,1.0797,1.0819,1.0827,1.0816,1.0818,1.0878,1.0878,1.0879,1.0877,0,0,0,0,0,0,1.0667,1.0674,1.0682,1.0704,1.0712,1.0745,1.0743,1.0746,1.0757,1.0758,1.0779,1.0783,1.0792,1.0816,1.0821,1.083,1.0819,1.0877,1.0878,1.0879,1.0877,1.0878,1.0879,0,0,0,0,0,1.0665,1.068,1.0683,1.0689,1.0723,1.0746,1.075,1.0761,1.0758,1.0766,1.0779,1.0782,1.0826,1.0818,1.0824,1.0833,1.0877,1.0878,1.0879,1.0876,1.0878,1.0879,0,0,0,0,0,0,1.0658,1.0683,1.0686,1.071,1.0726,1.0747,1.0758,1.0762,1.0779,1.0778,1.0791,1.0796,1.0817,1.0827,1.0819,1.0855,1.0851,1.0853,1.0847,1.0849,1.085,1.0846,1.0821,0,0,0,0,0,1.066,1.0677,1.0697,1.0716,1.0724,1.0739,1.075,1.0757,1.0774,1.078,1.0794,1.081,1.0828,1.0839,1.0856,1.0878,1.0883,1.0888,1.0889,1.089,1.0891,1.0904,1.0906,1.0883,1.0883,1.0883,0,0,1.0663,1.0678,1.0688,1.0715,1.0728,1.0745,1.0745,1.0763,1.0775,1.0783,1.0805,1.0815,1.0834,1.0857,1.0867,1.0866,1.0899,1.0891,1.0891,1.0893,1.0905,1.0908,1.091,1.0884,1.0884,1.0884,0,0,1.0677,1.069,1.0707,1.072,1.074,1.0751,1.0755,1.0776,1.0783,1.0806,1.0812,1.0827,1.0856,1.087,1.088,1.0899,1.0903,1.0905,1.091,1.0923,1.0924,1.0926,1.0933,1.0935,1.0906,1.0906,1.0906,0,1.0678,1.0703,1.0715,1.0733,1.0744,1.0753,1.077,1.0782,1.0806,1.0814,1.0812,1.085,1.0863,1.0889,1.0893,1.0902,1.0907,1.0902,1.0923,1.0925,1.0927,1.0933,1.0936,1.0907,1.0907,1.0907,1.0906,0,1.0704,1.0721,1.0733,1.0756,1.0769,1.0786,1.0801,1.0812,1.0819,1.0829,1.0852,1.0868,1.0888,1.0895,1.0901,1.0922,1.092,1.0921,1.0917,1.0929,1.0935,1.0938,1.0907,1.0907,1.0907,1.0907,0,0,1.0714,1.0744,1.0748,1.0759,1.0782,1.0796,1.0814,1.0834,1.0844,1.086,1.0875,1.09,1.0901,1.0913,1.0921,1.0932,1.0946,1.0931,1.0932,1.0933,1.0969,1.0968,1.0971,1.0948,1.0949,1.0949,1.0968,0,1.0731,1.0763,1.0774,1.08,1.0817,1.0825,1.084,1.0856,1.0866,1.0882,1.0893,1.0911,1.0911,1.0918,1.0929,1.0942,1.0953,1.0941,1.0962,1.0963,1.0957,1.0975,1.0974,1.099,1.097,1.0971,1.0971,0,1.0754,1.0771,1.0799,1.082,1.0827,1.0841,1.0861,1.0875,1.0893,1.09,1.0914,1.0921,1.094,1.0935,1.0961,1.0952,1.0962,1.097,1.0971,1.0973,1.0967,1.0977,1.0996,1.0998,1.0975,1.0975,1.0974,0,1.0758,1.0789,1.0809,1.0818,1.0843,1.0853,1.0864,1.0881,1.0893,1.091,1.0917,1.0936,1.0947,1.0961,1.0973,1.0969,1.0998,1.0995,1.1004,1.1004,1.1009,1.1009,1.103,1.1016,1.1016,1.1016,1.1016,0,1.0775,1.0792,1.0812,1.0824,1.0843,1.0856,1.0875,1.0886,1.0902,1.0917,1.0925,1.0939,1.0954,1.097,1.0979,1.0999,1.1004,1.101,1.1012,1.1009,1.1008,1.1015,1.1014,1.1017,1.1017,1.1017,1.1017,0,1.0783,1.0797,1.082,1.0842,1.0848,1.0861,1.088,1.0892,1.0903,1.0922,1.0927,1.0945,1.0964,1.0977,1.1002,1.1008,1.1029,1.1032,1.1023,1.1024,1.1033,1.1032,1.1058,1.1063,1.1047,1.1047,1.1047,0,1.0793,1.0806,1.083,1.084,1.0851,1.0868,1.088,1.0893,1.0905,1.0927,1.0937,1.0957,1.0973,1.1003,1.1018,1.1037,1.1039,1.1047,1.1042,1.1038,1.1039,1.1038,1.1039,1.1048,1.1048,1.1048,1.1048,0,1.0809,1.0815,1.0832,1.0851,1.0865,1.0881,1.0897,1.0905,1.0922,1.0935,1.0954,1.0967,1.0992,1.1012,1.1032,1.1043,1.1048,1.105,1.1053,1.1049,1.1044,1.1047,1.1025,1.1049,1.1049,1.1049,1.1049,1.1049,1.0818,1.083,1.0848,1.0867,1.088,1.0895,1.0908,1.0921,1.0937,1.0959,1.0966,1.0986,1.1004,1.1032,1.1043,1.1059,1.1059,1.1063,1.1064,1.1065,1.1065,1.1042,1.1063,1.1063,1.1063,1.1063,1.1063,0,1.0834,1.0846,1.0863,1.0885,1.09,1.0904,1.0922,1.0933,1.0951,1.0968,1.0984,1.1006,1.1025,1.1041,1.1061,1.1071,1.1074,1.1075,1.1075,1.1077,1.1064,1.1059,1.1073,1.1073,1.1073,1.1073,1.1073,1.1073,1.0843,1.0864,1.0872,1.09,1.0912,1.0932,1.0942,1.0955,1.0968,1.0993,1.1009,1.102,1.1036,1.1057,1.1075,1.1079,1.1086,1.1087,1.1092,1.1079,1.1078,1.1077,1.1072,1.1088,1.1088,1.1103,1.1103,1.1103]},{"header":{"parameterUnit":"m.s-1","parameterCategory":1,"la1":30.2991,"la2":30.254,"lo1":-89.0895,"lo2":-89.0444,"dy":0.0017,"dx":0.0017,"nx":28,"ny":28,"refTime":"2024-09-01T21:00:00:Z","depth":0,"parameterNumber":3,"parameterNumberName":"V-component_of_WINDS"},"data":[0,0,0,0,0,0,0,0,0,0,0,0,0,0,0,0,0,0,0,0,0,0,0,0,0,0,0,0,0,0,0,0,0,0,0,0,0,0,0,0,0,0,0,0,0,0,0,0,0,0,0,0,0,0,0,0,0,0,-1.9926,-1.9927,0,-1.9999,-2.0,-2.0001,-1.9995,-1.9994,-1.9993,-1.9992,-2.0067,-2.007,-2.0073,0,0,0,0,0,0,0,0,0,0,0,0,0,-1.9784,-1.9787,-1.9926,-1.9927,-1.9928,-1.9999,-2.0,-2.0001,-1.9996,-1.9994,-1.9993,-1.9992,-2.0066,-2.007,-2.0074,0,0,0,0,0,0,0,0,0,0,0,0,0,-1.985,-1.9788,-1.9926,-1.9934,-1.9935,-1.9999,-2.0,-2.0001,-1.9996,-1.9994,-1.9993,-1.9991,-2.0065,-2.007,-2.0074,-2.0134,0,0,-2.0088,-2.009,0,0,0,0,0,0,0,0,-1.9847,-1.9856,-1.9932,-1.9934,-1.9935,-1.9986,-1.9977,-2.0046,-1.9996,-1.9973,-1.9992,-1.999,-2.0042,-2.0048,-2.0065,-2.0138,-2.0141,-2.0088,-2.0091,-2.0093,-2.0094,0,0,0,0,0,0,0,-1.9842,-1.9852,-1.9955,-1.9933,-1.9935,-1.9934,-1.9942,-1.999,-2.0016,-1.9975,-1.9975,-1.9983,-2.0042,-2.0061,-2.0067,-2.0142,-2.0088,-2.0092,-2.0095,-2.0097,-2.0268,-2.027,0,0,0,0,0,0,-1.9836,-1.9849,-1.9953,-1.9957,-1.9886,-1.9938,-1.9947,-1.9972,-2.0015,-2.002,-1.9985,-1.9983,-2.0054,-2.0062,-2.007,-2.0143,-2.0093,-2.0097,-2.01,-2.0266,-2.0268,-2.027,0,0,0,0,0,0,-1.9833,-1.9845,-1.995,-1.9903,-1.9916,-1.9942,-1.9971,-1.9974,-1.9993,-2.0022,-2.0027,-1.9999,-2.0053,-2.0063,-2.0118,-2.0146,-2.0099,-2.0103,-2.0264,-2.0267,-2.0269,-2.029,0,0,0,0,0,0,-1.9828,-1.9844,-1.9867,-1.9903,-1.9919,-1.9997,-1.9972,-1.9977,-2.0,-1.9999,-2.0037,-2.0042,-2.0053,-2.0112,-2.0123,-2.0151,-2.0107,-2.0262,-2.0265,-2.0269,-2.0287,-2.0294,-2.0299,0,0,0,0,0,-1.9823,-1.987,-1.9868,-1.988,-1.9948,-1.9998,-2.0007,-2.0019,-2.0002,-2.0026,-2.0045,-2.0041,-2.0141,-2.0117,-2.013,-2.016,-2.026,-2.0264,-2.0268,-2.0285,-2.0292,-2.0299,0,0,0,0,0,0,-1.9836,-1.9875,-1.9873,-1.9933,-1.9962,-1.9997,-2.0027,-2.0026,-2.0061,-2.0058,-2.0071,-2.008,-2.0135,-2.0153,-2.0126,-2.0221,-2.0198,-2.0205,-2.0207,-2.0214,-2.022,-2.0214,-2.0111,0,0,0,0,0,-1.9845,-1.9883,-1.9915,-1.9965,-1.998,-2.0001,-2.0024,-2.003,-2.0061,-2.0074,-2.0097,-2.0128,-2.0166,-2.0191,-2.0228,-2.029,-2.0299,-2.0317,-2.0323,-2.0327,-2.0333,-2.0367,-2.0376,-2.0284,-2.0284,-2.0284,0,0,-1.9866,-1.9892,-1.9915,-1.9968,-1.9992,-2.003,-2.0012,-2.0054,-2.0083,-2.008,-2.0133,-2.0151,-2.0187,-2.0245,-2.0272,-2.0262,-2.036,-2.0333,-2.0336,-2.0339,-2.0372,-2.0381,-2.0389,-2.0287,-2.0286,-2.0286,0,0,-1.9923,-1.9946,-1.999,-2.0014,-2.005,-2.0064,-2.0075,-2.011,-2.0122,-2.0176,-2.0175,-2.021,-2.0276,-2.0301,-2.0322,-2.0389,-2.0386,-2.0401,-2.0431,-2.0464,-2.0471,-2.0478,-2.0501,-2.051,-2.0407,-2.0407,-2.0407,0,-1.9944,-2.0002,-2.0013,-2.0055,-2.0079,-2.0078,-2.0123,-2.0146,-2.0192,-2.0208,-2.0196,-2.0279,-2.0303,-2.0367,-2.0384,-2.0401,-2.0414,-2.0396,-2.0469,-2.0476,-2.0482,-2.0505,-2.0514,-2.0408,-2.0408,-2.0408,-2.0408,0,-2.0026,-2.0066,-2.0097,-2.0142,-2.0169,-2.0212,-2.023,-2.0256,-2.026,-2.0276,-2.033,-2.0359,-2.0402,-2.0418,-2.0422,-2.0483,-2.0476,-2.0466,-2.0444,-2.0492,-2.0514,-2.0523,-2.041,-2.041,-2.0409,-2.0409,0,0,-2.0092,-2.0142,-2.0154,-2.0174,-2.0214,-2.0245,-2.0289,-2.033,-2.0353,-2.0385,-2.0422,-2.0478,-2.0469,-2.0494,-2.0501,-2.053,-2.0582,-2.0517,-2.0518,-2.0528,-2.0651,-2.0657,-2.0667,-2.058,-2.0582,-2.0583,-2.0648,0,-2.0153,-2.0229,-2.0241,-2.0308,-2.0346,-2.0346,-2.0384,-2.0413,-2.0429,-2.0463,-2.048,-2.052,-2.0506,-2.0521,-2.055,-2.0569,-2.0606,-2.0565,-2.0615,-2.0616,-2.0606,-2.0679,-2.0686,-2.0745,-2.0656,-2.0658,-2.0659,0,-2.0234,-2.0268,-2.0339,-2.0374,-2.039,-2.0424,-2.0463,-2.0496,-2.0529,-2.0539,-2.0566,-2.057,-2.0615,-2.0591,-2.0654,-2.0626,-2.0647,-2.066,-2.0663,-2.0668,-2.064,-2.0685,-2.0765,-2.0774,-2.0672,-2.0671,-2.067,0,-2.0275,-2.0339,-2.039,-2.0407,-2.0449,-2.0473,-2.0492,-2.0523,-2.0547,-2.0582,-2.0598,-2.0637,-2.0659,-2.0689,-2.0704,-2.0685,-2.0766,-2.0744,-2.0775,-2.0775,-2.0792,-2.0791,-2.0876,-2.0806,-2.0806,-2.0806,-2.0806,0,-2.0342,-2.0385,-2.0409,-2.044,-2.0489,-2.0502,-2.055,-2.0568,-2.0596,-2.0631,-2.0634,-2.0667,-2.0684,-2.072,-2.0732,-2.0782,-2.0792,-2.0801,-2.0804,-2.0801,-2.08,-2.0815,-2.0811,-2.0808,-2.0808,-2.0807,-2.0807,0,-2.0396,-2.0413,-2.0469,-2.0504,-2.0514,-2.0548,-2.0579,-2.0609,-2.0625,-2.0669,-2.0681,-2.0705,-2.0747,-2.0765,-2.0817,-2.0825,-2.0883,-2.0882,-2.0871,-2.0872,-2.0903,-2.09,-2.1,-2.1014,-2.0936,-2.0936,-2.0937,0,-2.0437,-2.0471,-2.0509,-2.0533,-2.0552,-2.059,-2.0615,-2.0629,-2.0655,-2.0695,-2.0721,-2.0763,-2.0797,-2.0865,-2.0888,-2.0927,-2.0928,-2.096,-2.0934,-2.093,-2.0928,-2.0926,-2.093,-2.0965,-2.0966,-2.0967,-2.0967,0,-2.0508,-2.0515,-2.0551,-2.059,-2.0619,-2.0651,-2.0681,-2.07,-2.0719,-2.0748,-2.0791,-2.0818,-2.0871,-2.0913,-2.0954,-2.0974,-2.0974,-2.0975,-2.0985,-2.0982,-2.0974,-2.0979,-2.0884,-2.0973,-2.0972,-2.0972,-2.0972,-2.0971,-2.0557,-2.0587,-2.0619,-2.0659,-2.0683,-2.0712,-2.0742,-2.0761,-2.0797,-2.0841,-2.0848,-2.0894,-2.0926,-2.0981,-2.1003,-2.1039,-2.1031,-2.1045,-2.1048,-2.1051,-2.1053,-2.0969,-2.1047,-2.1047,-2.1047,-2.1046,-2.1046,0,-2.0629,-2.0649,-2.0685,-2.0728,-2.0759,-2.0756,-2.079,-2.0817,-2.0857,-2.0887,-2.0921,-2.097,-2.1011,-2.1037,-2.1078,-2.1103,-2.1104,-2.1113,-2.1111,-2.1116,-2.1058,-2.1046,-2.1111,-2.1111,-2.1111,-2.1111,-2.1111,-2.1111,-2.0669,-2.072,-2.0731,-2.0793,-2.0814,-2.0858,-2.0878,-2.0904,-2.0928,-2.0984,-2.1017,-2.1034,-2.1063,-2.1106,-2.1143,-2.115,-2.1165,-2.1175,-2.1181,-2.1127,-2.112,-2.1113,-2.1102,-2.1178,-2.1178,-2.1235,-2.1236,-2.1236]}]]